User: anonymous   Login
Location: Newsoms
(36.6240°N, 77.1250°W)
Time: 18:02:57
(UTC-04:00)
Language:

BREEZE-M DEB (TANK) - Orbit

View from above orbital plane
View from above orbital plane
View from above satellite
View from above satellite

Ground track
Ground track

The orbit data is extracted from the following two-line orbital elements,

1 29649U 06056B   16206.85156245 +.00001347 +00000-0 +21483-3 0  9994
2 29649 049.4590 112.9173 5391872 317.2746 011.5632 04.98663507171445
Epoch (UTC): 24 July 2016 20:26:14
Eccentricity: 0.5391872
inclination: 49.4590°
perigee height: 291 km
apogee height: 15897 km
right ascension of ascending node: 112.9173°
argument of perigee: 317.2746°
revolutions per day: 4.98663507
mean anomaly at epoch: 11.5632°
orbit number at epoch: 17144

The dashed part of the orbit path shows where the satellite is in the earth's shadow,  

DLR